星链-35006 (STARLINK-35006)

导读 | 豆包AI

STARLINK-35006是美国SpaceX公司于2025年8月22日发射的星链低轨通信卫星,隶属于Starlink全球卫星互联网星座。该卫星运行于约550公里低地球轨道,配备相控阵天线与激光星间链路,支持高速宽带通信与手机直连服务,通过多星组网实现全球覆盖,为地面网络盲区提供低时延互联网接入,助力构建天基全球通信网络。

基本信息
目录编号:
65284
目录名称:
STARLINK-35006
国际标识:
2025-184M
轨道中心:
EARTH
卫星名称:
星链-35006
卫星全名:
星链-35006 (STARLINK-35006)
卫星状态:
在轨 (已飞行204 天)
发射日期:
2025-08-22 UTC
国别 :
美国 (US)
星等 :
--
轨道信息
数据来源 国际轨道数据
星历时间: 2026-03-14T05:26:06+0800
14小时前
查看轨道信息
半长轴: 6927.668km
偏心率: 0.0001481
轨道倾角: 97.604°
近地点辐角 88.232°
升交点赤经 126.810°
平近点角 271.908°
近地点: 548.505km
远地点: 550.557km
周期: 95.640分钟
每日圈数: 15.056438
详细信息
固有亮度:
5
最大亮度:
2.5
卫星平台:
Starlink V1.0
覆盖范围:
全球
运营商:
太空探索技术公司
运营商所在国:
美国
制造商(研发单位):
太空探索技术公司
制造商所在国:
美国
使用方式:
暂无
卫星简介
Starlink 计划是 SpaceX 推出的全球卫星互联网项目,通过发射低轨道卫星,为全球尤其是偏远地区提供高速、低延迟的互联网服务。自 2019 年起,Starlink 已部署数千颗卫星,旨在缩小全球数字鸿沟,推动互联网普及。该项目还为军事、航空等行业提供通信支持,带来广泛经济效益。
2D轨道图
3D轨道图
轨道高度分析图
轨道倾角分析图
轨道综合分析图
查看轨道综合分析图